Weather History for Aswan, Egypt

Change the Weather History Date:

Saturday, February 15, 2014

  Actual Average Record
Temperature  
Mean Temperature 62 °F -  
Max Temperature 75 °F 78 °F 95 °F (2012)
Min Temperature 49 °F 55 °F 41 °F (2004)
Degree Days  
Heating Degree Days 3    
Growing Degree Days 12 (Base 50)    
Moisture  
Dew Point 28 °F    
Average Humidity 25    
Maximum Humidity 44    
Minimum Humidity 9    
Precipitation  
Precipitation 0.00 in 0.00 in - ()
Sea Level Pressure  
Sea Level Pressure 30.05 in    
Wind  
Wind Speed 8 mph ()    
Max Wind Speed 20 mph    
Max Gust Speed -    
Visibility 6.0 miles    
Events      
Averages and records for this station are not official NWS values.
T = Trace of Precipitation, MM = Missing Value Source: Averaged Metar Reports

Daily Weather History Graph

Daily Weather History Graph

Search for Another Location

Airport:

Trip Planner

Search our weather history database for the weather conditions in past years. The results will help you decide how hot, cold, wet, or windy it might be!

Date:

Astronomy

Feb. 15, 2014 Rise Set
Actual Time 6:22 AM EET 5:43 PM EET
Civil Twilight 5:58 AM EET 6:07 PM EET
Nautical Twilight 5:32 AM EET 6:33 PM EET
Astronomical Twilight 5:05 AM EET 7:00 PM EET
Moon 6:14 PM EET (2/15) 6:17 AM EET (2/15)
Length of Visible Light 12h 08m
Length of Day
11h 21m
Full, 100% of the Moon is Illuminated
Feb 15
Full
Feb 22
Last Quarter
Mar 1
New
Mar 8
First Quarter
Mar 16
Full

Hourly Weather History & Observations

Time (EET) Temp. Dew Point Humidity Pressure Visibility Wind Dir Wind Speed Gust Speed Precip Events Conditions
12:00 AM 59.0 °F 23.0 °F 25% 30.09 in - WNW 12.7 mph - N/A   Clear
1:00 AM 57.2 °F 21.2 °F 25% 30.09 in - WNW 9.2 mph - N/A   Clear
2:00 AM 56 °F 22 °F 15% 30.09 in 6 mi WNW 6.9 mph - -  
2:00 AM 57.2 °F 21.2 °F 25% 30.09 in - WNW 6.9 mph - N/A   Clear
3:00 AM 55.4 °F 21.2 °F 26% 30.09 in - NW 5.8 mph - N/A   Clear
4:00 AM 53.6 °F 23.0 °F 30% 30.09 in - WNW 5.8 mph - N/A   Clear
5:00 AM 53 °F 28 °F 26% 30.08 in 6 mi WNW 5.8 mph - -  
5:00 AM 53.6 °F 28.4 °F 38% 30.06 in - WNW 5.8 mph - N/A   Clear
6:00 AM 50.0 °F 28.4 °F 43% 30.06 in - WSW 2.3 mph - N/A   Clear
7:00 AM 51.8 °F 30.2 °F 44% 30.09 in - West 5.8 mph - N/A   Clear
8:00 AM 56 °F 32 °F 28% 30.12 in 6 mi WNW 9.2 mph - -  
8:00 AM 55.4 °F 32.0 °F 41% 30.09 in - WNW 9.2 mph - N/A   Clear
9:00 AM 62.6 °F 33.8 °F 34% 30.12 in - WNW 10.4 mph - N/A   Clear
10:00 AM 64.4 °F 33.8 °F 32% 30.12 in - NNW 8.1 mph - N/A   Clear
11:00 AM 67 °F 34 °F 19% 30.10 in 6 mi WNW 8.1 mph - -  
11:00 AM 66.2 °F 33.8 °F 30% 30.09 in - WNW 8.1 mph - N/A   Clear
12:00 PM 69.8 °F 32.0 °F 25% 30.06 in - West 10.4 mph - N/A   Clear
1:00 PM 71.6 °F 26.6 °F 19% 30.04 in - West 3.5 mph - N/A   Clear
2:00 PM 73 °F 27 °F 10% 30.01 in 6 mi West 10.4 mph - -  
2:00 PM 73.4 °F 26.6 °F 18% 30.01 in - West 10.4 mph - N/A   Clear
3:00 PM 75.2 °F 26.6 °F 17% 29.98 in - West 11.5 mph - N/A   Clear
4:00 PM 75.2 °F 28.4 °F 18% 29.98 in - West 13.8 mph - N/A   Clear
5:00 PM 74 °F 28 °F 9% 29.97 in 6 mi West 13.8 mph - -  
5:00 PM 73.4 °F 26.6 °F 18% 29.98 in - West 13.8 mph - N/A   Clear
6:00 PM 71.6 °F 26.6 °F 19% 29.98 in - West 19.6 mph - N/A   Clear
7:00 PM 68.0 °F 28.4 °F 23% 30.01 in - West 11.5 mph - N/A   Clear
8:00 PM 66 °F 28 °F 13% 30.02 in 6 mi WNW 10.4 mph - -  
8:00 PM 66.2 °F 37.4 °F 35% 30.01 in - WNW 10.4 mph - N/A   Clear
9:00 PM 64.4 °F 26.6 °F 24% 30.04 in - West 8.1 mph - N/A   Clear
10:00 PM 62.6 °F 26.6 °F 26% 30.04 in - West 5.8 mph - N/A   Clear
11:00 PM 61 °F 27 °F 16% 30.03 in 6 mi WSW 9.2 mph - -  
11:00 PM 60.8 °F 26.6 °F 27% 30.04 in - WSW 9.2 mph - N/A   Clear